Paso Robles, CA

3:23 AM PST on January 24, 2017 (GMT -0800)
Paso Robles Municipal

Weather History for KPRB - August, 2014

Change the Weather History Date:

Saturday, August 23, 2014

  Actual Average Record
Temperature  
Mean Temperature 71 °F 73 °F  
Max Temperature 84 °F 93 °F 105 °F (1964)
Min Temperature 57 °F 53 °F 44 °F (1960)
Degree Days  
Heating Degree Days 0 0  
Month to date heating degree days 0 0  
Since 1 June heating degree days 11 31  
Since 1 July heating degree days 0 4  
Cooling Degree Days 6 8  
Month to date cooling degree days 213 197  
Year to date cooling degree days 942 674  
Since 1 June cooling degree days 789 606  
Growing Degree Days 20 (Base 50)    
Moisture  
Dew Point 53 °F    
Average Humidity 63    
Maximum Humidity 93    
Minimum Humidity 33    
Precipitation  
Precipitation 0.00 in 0.01 in 0.00 in (2017)
Month to date precipitation 0.00 0.07  
Year to date precipitation 4.46 8.86  
Since 1 July precipitation T  
Sea Level Pressure  
Sea Level Pressure 29.91 in    
Wind  
Wind Speed 8 mph (SSW)    
Max Wind Speed 20 mph    
Max Gust Speed 25 mph    
Visibility 9 miles    
Events      
T = Trace of Precipitation, MM = Missing Value Source: NWS Daily Summary

Daily Weather History Graph

Daily Weather History Graph

Search for Another Location

Airport or City:

Trip Planner

Search our weather history database for the weather conditions in past years. The results will help you decide how hot, cold, wet, or windy it might be!

Date:

Astronomy

Aug. 23, 2014 Rise Set
Actual Time 6:27 AM PDT 7:41 PM PDT
Civil Twilight 6:01 AM PDT 8:08 PM PDT
Nautical Twilight 5:29 AM PDT 8:39 PM PDT
Astronomical Twilight 4:56 AM PDT 9:12 PM PDT
Moon 4:49 AM PDT (8/23) 6:29 PM PDT (8/23)
Length of Visible Light 14h 07m
Length of Day
13h 14m
Waning Crescent, 3% of the Moon is Illuminated
Aug 23
Waning Crescent
Aug 25
New
Sep 2
First Quarter
Sep 8
Full
Sep 15
Last Quarter

Hourly Weather History & Observations

Time (PDT) Temp. Heat Index Dew Point Humidity Pressure Visibility Wind Dir Wind Speed Gust Speed Precip Events Conditions
12:53 AM 60.1 °F - 54.0 °F 80% 29.92 in 10.0 mi NNW 4.6 mph - N/A   Clear
2:53 AM 59.0 °F - 55.0 °F 87% 29.92 in 10.0 mi Calm Calm - N/A   Clear
4:07 AM 57.0 °F - 54.0 °F 89% 29.94 in 10.0 mi Calm Calm - N/A   Mostly Cloudy
4:53 AM 59.0 °F - 55.0 °F 87% 29.91 in 10.0 mi Calm Calm - N/A   Overcast
5:53 AM 57.9 °F - 55.0 °F 90% 29.93 in 6.0 mi Calm Calm - N/A   Overcast
6:53 AM 57.0 °F - 54.0 °F 89% 29.94 in 4.0 mi Calm Calm - N/A   Overcast
7:14 AM 57.0 °F - 55.0 °F 93% 29.96 in 2.0 mi Calm Calm - N/A   Overcast
7:24 AM 57.0 °F - 55.0 °F 93% 29.96 in 5.0 mi Calm Calm - N/A   Overcast
7:53 AM 57.9 °F - 54.0 °F 87% 29.95 in 10.0 mi Calm Calm - N/A   Overcast
8:27 AM 60.1 °F - 54.0 °F 80% 29.97 in 10.0 mi Calm Calm - N/A   Scattered Clouds
8:53 AM 61.0 °F - 54.0 °F 78% 29.96 in 10.0 mi South 4.6 mph - N/A   Clear
9:53 AM 66.0 °F - 54.0 °F 65% 29.95 in 10.0 mi SSW 4.6 mph - N/A   Clear
10:53 AM 72.0 °F - 55.0 °F 55% 29.94 in 10.0 mi South 10.4 mph - N/A   Clear
11:53 AM 75.0 °F - 55.0 °F 50% 29.93 in 10.0 mi SSW 15.0 mph - N/A   Clear
12:53 PM 80.1 °F 80.1 °F 55.0 °F 42% 29.92 in 10.0 mi SSW 13.8 mph - N/A   Clear
2:53 PM 82.0 °F - 50.0 °F 33% 29.87 in 10.0 mi SW 15.0 mph 23.0 mph N/A   Clear
3:53 PM 82.0 °F - 51.1 °F 34% 29.85 in 10.0 mi SSW 17.3 mph - N/A   Clear
4:53 PM 81.0 °F - 48.0 °F 31% 29.85 in 10.0 mi SW 15.0 mph - N/A   Clear
5:53 PM 77.0 °F - 48.9 °F 37% 29.85 in 10.0 mi SSW 13.8 mph - N/A   Clear
6:53 PM 73.0 °F - 48.9 °F 42% 29.84 in 10.0 mi South 18.4 mph - N/A   Clear
7:53 PM 68.0 °F - 52.0 °F 56% 29.85 in 10.0 mi SSW 16.1 mph - N/A   Clear
8:53 PM 64.0 °F - 53.1 °F 67% 29.87 in 10.0 mi SSW 10.4 mph - N/A   Clear
9:53 PM 63.0 °F - 52.0 °F 67% 29.88 in 10.0 mi SSW 8.1 mph - N/A   Clear
10:53 PM 62.1 °F - 52.0 °F 70% 29.88 in 10.0 mi SSW 8.1 mph - N/A   Clear
11:53 PM 60.1 °F - 52.0 °F 75% 29.88 in 10.0 mi SW 3.5 mph - N/A   Clear